TimeEDT,TemperatureF,Dew PointF,Humidity,Sea Level PressureIn,VisibilityMPH,Wind Direction,Wind SpeedMPH,Gust SpeedMPH,PrecipitationIn,Events,Conditions,WindDirDegrees,DateUTC
12:51 AM,71.1,69.1,93,29.88,8.0,West,8.1,17.3,N/A,,Mostly Cloudy,280,2013-10-20 04:51:00
1:51 AM,71.1,66.0,84,29.88,10.0,WNW,9.2,-,N/A,,Mostly Cloudy,300,2013-10-20 05:51:00
2:51 AM,71.1,64.0,78,29.88,10.0,NW,6.9,-,N/A,,Scattered Clouds,310,2013-10-20 06:51:00
3:51 AM,69.1,64.0,84,29.86,10.0,NW,8.1,-,N/A,,Mostly Cloudy,320,2013-10-20 07:51:00
4:51 AM,68.0,59.0,73,29.88,10.0,NNW,9.2,20.7,N/A,,Mostly Cloudy,330,2013-10-20 08:51:00
5:51 AM,66.9,59.0,76,29.91,10.0,Variable,6.9,-,N/A,,Overcast,0,2013-10-20 09:51:00
6:51 AM,66.0,57.0,73,29.94,10.0,Variable,6.9,18.4,N/A,,Overcast,0,2013-10-20 10:51:00
7:51 AM,64.9,54.0,68,29.95,10.0,NNE,10.4,20.7,N/A,,Overcast,20,2013-10-20 11:51:00
8:51 AM,64.9,57.0,75,30.00,9.0,NNE,8.1,18.4,0.00,Rain,Light Rain,20,2013-10-20 12:51:00
9:43 AM,64.4,59.0,83,30.01,10.0,Variable,6.9,-,0.00,Rain,Light Rain,0,2013-10-20 13:43:00
9:51 AM,64.9,59.0,81,30.02,10.0,NNE,8.1,-,0.00,Rain,Light Rain,20,2013-10-20 13:51:00
10:48 AM,66.2,57.2,73,30.02,10.0,NNE,8.1,19.6,0.00,,Mostly Cloudy,30,2013-10-20 14:48:00
10:51 AM,66.0,57.0,73,30.02,10.0,Variable,6.9,16.1,0.00,,Mostly Cloudy,0,2013-10-20 14:51:00
11:22 AM,66.2,57.2,73,30.03,10.0,NNE,9.2,20.7,N/A,,Mostly Cloudy,30,2013-10-20 15:22:00
11:51 AM,66.0,57.0,73,30.04,10.0,NNE,11.5,20.7,N/A,,Overcast,30,2013-10-20 15:51:00
12:51 PM,66.9,55.9,68,30.03,10.0,NNE,9.2,18.4,N/A,,Overcast,30,2013-10-20 16:51:00
1:51 PM,66.9,54.0,63,30.04,10.0,NNE,8.1,17.3,N/A,,Mostly Cloudy,30,2013-10-20 17:51:00
2:25 PM,66.2,53.6,64,30.03,10.0,NNE,8.1,18.4,N/A,,Scattered Clouds,30,2013-10-20 18:25:00
2:51 PM,66.0,53.1,63,30.04,10.0,NE,11.5,18.4,N/A,,Partly Cloudy,40,2013-10-20 18:51:00
3:51 PM,64.0,54.0,70,30.03,10.0,NNE,9.2,18.4,N/A,,Clear,30,2013-10-20 19:51:00
4:51 PM,63.0,53.1,70,30.04,10.0,NE,9.2,16.1,N/A,,Clear,50,2013-10-20 20:51:00
5:51 PM,61.0,52.0,72,30.05,10.0,NE,5.8,-,N/A,,Clear,40,2013-10-20 21:51:00
6:51 PM,60.1,51.1,72,30.06,10.0,NE,6.9,-,N/A,,Clear,40,2013-10-20 22:51:00
7:51 PM,59.0,52.0,78,30.08,10.0,NE,5.8,-,N/A,,Clear,50,2013-10-20 23:51:00
8:51 PM,59.0,50.0,72,30.09,10.0,NE,4.6,-,N/A,,Clear,40,2013-10-21 00:51:00
9:51 PM,59.0,50.0,72,30.11,10.0,NE,5.8,-,N/A,,Clear,50,2013-10-21 01:51:00
10:51 PM,59.0,48.9,69,30.11,10.0,NE,5.8,-,N/A,,Clear,40,2013-10-21 02:51:00
11:51 PM,59.0,48.9,69,30.12,10.0,NE,4.6,-,N/A,,Clear,40,2013-10-21 03:51:00